#timestamp,LO_Frequency,Hit,StdDev 
1666497615.5,286047000.1,N
1666497635.4,286047002.6,N
1666497655.2,286047001.8,N
1666497675.1,286047004.0,N
1666497676.0,286047004.0,N
1666497695.8,286047003.4,N
1666497715.6,286047002.3,N
1666497735.5,286046999.2,N
1666497755.3,286046997.2,N
1666497775.1,286046995.7,N
1666497795.9,286046995.0,N
1666497815.7,286046997.2,N
1666497835.6,286046999.4,N
1666497855.4,286046999.1,N
1666497875.2,286047000.0,N
1666497895.1,286047000.1,N
1666497896.0,286047000.1,N
1666497915.8,286047000.4,N
1666497935.6,286046996.5,N
1666497955.5,286046999.4,N
1666497975.3,286046997.0,N
1666497995.2,286046996.6,N
1666498015.9,286046999.2,N
1666498035.7,286046998.9,N
1666498055.6,286046998.6,N
1666498075.4,286047000.8,N
1666498095.2,286047002.2,N
1666498115.1,286047002.4,N
1666498116.0,286047002.4,N
1666498135.8,286047002.4,N
1666498155.7,286047001.7,N
1666498175.5,286047001.9,N
1666498195.3,286047002.4,N
1666498215.2,286047001.4,N
1666498235.0,286047002.2,N
1666498235.9,286047002.2,N
1666498255.7,286047002.2,N
1666498275.6,286047003.2,N
1666498295.4,286047001.7,N
1666498315.3,286047001.7,N
1666498335.1,286047002.9,N
1666498336.0,286047002.9,N
1666498355.8,286047002.2,N
1666498375.7,286047001.7,N
1666498395.5,286047002.9,N
1666498415.3,286047002.9,N
1666498435.2,286047004.8,N
1666498455.0,286047004.6,N
1666498455.9,286047004.6,N
1666498475.8,286047005.4,N
1666498495.6,286047001.8,N
1666498515.4,286047001.4,N
1666498535.3,286047002.1,N
1666498555.1,286047000.2,N
1666498575.9,286047002.7,N
1666498595.7,286047002.3,N
1666498615.5,286047001.7,N
1666498635.4,286047005.9,Y
1666498655.2,286047004.4,P
1666498675.0,286047003.8,P
1666498675.9,286047003.8,P
1666498695.8,286047004.3,Y
1666498715.6,286046997.0,P
1666498735.5,286046999.2,N
1666498755.3,286046997.7,N
1666498775.1,286046997.0,N
1666498795.9,286046999.6,N
1666498815.7,286046997.8,N
1666498835.5,286046998.3,N
1666498855.4,286046998.5,N
1666498875.2,286046998.1,N
1666498895.1,286046998.2,N
1666498896.0,286046998.2,N
1666498915.8,286047000.8,N
1666498935.6,286047000.7,N
1666498955.5,286046999.6,N
1666498975.3,286046998.6,N
1666498995.1,286046999.4,N
1666499015.9,286046999.1,N
1666499035.7,286046998.5,N
1666499055.6,286047000.3,N
1666499075.4,286047002.5,N
1666499095.2,286047000.4,N
1666499115.1,286047000.9,N
1666499116.0,286047000.9,N
1666499135.8,286047000.5,N
1666499155.6,286047002.8,N
1666499175.5,286047001.5,N
1666499195.3,286047001.3,N
1666499215.2,286047003.7,N
1666499235.9,286047001.3,N
1666499255.7,286047002.1,N
1666499275.6,286047002.5,N
1666499295.4,286047000.0,N
1666499315.2,286047000.4,N
1666499335.1,286047000.5,N
1666499336.0,286047000.5,N
1666499355.8,286046999.8,N
1666499375.7,286046999.7,N
1666499395.5,286046998.1,N
1666499415.3,286046999.4,N
1666499435.2,286046999.6,N
1666499455.0,286046998.4,N
1666499455.9,286046998.4,N
1666499475.7,286047001.0,N
1666499495.6,286047002.0,N
1666499515.4,286046999.7,N
1666499535.3,286047002.6,N
1666499555.1,286046999.9,N
1666499575.8,286046998.2,N
1666499595.7,286047000.0,N
1666499615.5,286047000.9,N
1666499635.4,286046997.0,N
1666499655.2,286046997.4,N
1666499675.0,286046998.6,N
1666499675.9,286046998.6,N
1666499695.8,286047002.6,N
1666499715.6,286047011.9,Y
1666499735.4,286047001.7,P
1666499755.3,286047000.1,N
1666499775.1,286046998.3,N
1666499795.9,286046998.8,N
1666499815.7,286046999.0,N
1666499835.5,286046996.8,N
1666499855.4,286046995.3,Y
1666499875.2,286046997.1,P
1666499895.1,286046998.2,N
1666499896.0,286046998.2,N
1666499915.8,286047000.6,N
1666499935.6,286047002.5,N
1666499955.5,286047002.5,N
1666499975.3,286046999.9,N
1666499995.1,286047002.2,N
1666500015.9,286047004.3,N
1666500035.7,286047002.5,N
1666500055.6,286047000.3,N
1666500075.4,286046998.1,N
1666500095.2,286047000.2,N
1666500115.1,286046999.9,N
1666500116.0,286046999.9,N
1666500135.8,286047001.5,N
1666500155.6,286047001.8,N
1666500175.5,286047001.8,N
1666500195.3,286047002.8,N
1666500215.2,286046999.8,N
1666500235.9,286047001.5,N
1666500255.7,286047001.3,N
1666500275.6,286047004.4,N
1666500295.4,286047004.2,N
1666500315.2,286047005.3,N
1666500335.1,286047003.4,N
1666500336.0,286047003.4,N
1666500355.8,286047004.2,N
1666500375.7,286047001.9,N
1666500395.5,286047002.1,N
1666500415.3,286047001.9,N
1666500435.2,286047000.0,N
1666500455.0,286047000.7,N
1666500455.9,286047000.7,N
1666500475.8,286047001.9,N
1666500495.6,286047004.3,N
1666500515.4,286047000.8,N
1666500535.3,286046999.9,N
1666500555.1,286047000.1,N
1666500575.8,286047002.0,N
1666500595.7,286047003.5,N
1666500615.5,286047003.7,N
1666500635.4,286047002.2,N
1666500655.2,286047004.4,N
1666500675.0,286047003.8,N
1666500675.9,286047003.8,N
1666500695.8,286047005.8,Y
1666500715.6,286047002.8,P
1666500735.5,286047000.8,P
1666500755.3,286047000.0,N
1666500775.1,286047000.9,N
1666500795.9,286047001.7,N
1666500815.7,286047003.9,Y
1666500835.6,286047003.8,P
1666500855.4,286047003.8,P
1666500875.2,286047002.7,N
1666500895.1,286047002.2,N
1666500896.0,286047002.2,N
1666500915.8,286047001.2,N
1666500935.7,286046998.6,N
1666500955.5,286046999.4,N
1666500975.3,286046997.7,N
1666500995.2,286046999.3,N
1666501015.9,286046998.7,N
1666501035.7,286046998.3,N
1666501055.6,286046999.8,N
1666501075.4,286047001.8,N
1666501095.3,286047001.3,N
1666501115.1,286047000.4,N
1666501116.0,286047000.4,N
1666501135.8,286047000.5,N
1666501155.7,286047000.3,N
1666501175.5,286047002.4,N
1666501195.4,286047000.9,N
